Wind_Speed
13 12 16 27 35 27 39 62 60 59 57 57 58 54 49 47 47 37 27 20 11 2 4 4 2 8 8 13 6 3 7 1 3 5 4 4 3 6 4 4 6 7 7 3 3 2 6 8 4 9 7 0 6 7
11 26 17 34 29 49 58 56 55 55 55 55 51 46 43 44 47 31 11 34 22 2 3 4 7 5 22 18 10 3 5 6 6 4 2 3 1 1 4 4 2 3 5 6 9 7 3 6 4 2 4 5 7 8
39 36 41 48 52 50 50 50 49 48 48 48 47 42 40 45 45 30 24 22 3 2 3 2 4 4 8 11 22 5 3 3 2 3 4 3 3 4 4 5 3 4 4 3 2 4 5 4 2 2 2 4 5 5
39 40 41 42 43 43 43 42 42 42 43 42 40 38 39 44 45 30 25 33 3 3 2 4 5 3 5 10 12 9 4 5 5 3 2 3 3 3 3 4 5 4 7 6 3 4 6 6 4 4 5 6 10 9
35 36 36 36 36 37 38 39 39 39 39 39 40 38 39 41 42 32 28 20 24 2 2 3 6 1 3 7 12 14 8 4 2 3 2 3 2 4 0 1 2 5 8 6 9 9 6 5 9 8 8 6 7 15
27 29 30 30 32 34 35 36 37 38 40 41 41 39 39 40 40 21 5 21 28 17 3 4 4 1 2 6 7 6 6 3 3 4 3 2 1 3 4 4 5 5 3 1 2 7 4 8 7 4 9 7 8 9
25 26 27 29 31 33 34 36 38 40 42 40 40 38 38 40 34 8 4 19 24 17 2 4 5 2 2 3 1 1 2 2 3 3 2 3 1 3 2 3 3 5 4 4 11 11 6 4 6 8 13 14 19 19
23 22 21 22 25 29 31 35 36 37 34 33 33 30 31 37 27 8 15 35 33 8 1 2 3 4 4 2 1 2 2 2 3 3 2 3 2 2 3 1 4 4 8 8 7 6 6 14 14 13 15 17 15 13
22 26 26 26 22 25 37 36 31 28 30 29 37 36 33 13 2 3 29 35 18 6 5 2 2 3 3 2 2 3 2 2 1 2 2 3 2 5 5 3 6 5 1 9 9 11 11 16 13 12 13 12 17 14
28 30 28 27 33 36 36 35 30 30 42 47 39 6 3 4 25 37 8 2 2 1 2 3 2 1 2 2 2 3 3 2 2 2 3 2 3 2 5 6 10 9 11 14 15 9 12 12 12 11 10 10 13 13
22 23 24 27 32 35 42 49 50 49 40 2 3 3 17 27 4 3 3 3 2 2 2 3 6 3 0 3 2 2 3 0 3 2 4 1 3 3 6 5 7 13 10 3 4 4 7 18 16 14 12 11 15 15
19 20 22 25 27 28 33 37 29 6 2 5 15 23 10 3 2 4 3 2 4 5 3 3 3 3 2 3 3 1 2 1 3 3 3 2 2 3 6 8 9 8 8 9 10 14 14 15 18 15 14 14 16 18
18 17 18 22 23 27 36 18 14 10 14 6 5 3 2 1 3 6 7 3 2 3 3 2 1 3 2 2 4 2 1 1 2 1 1 2 3 5 8 9 11 10 12 14 15 19 21 21 22 21 17 18 21 18
19 18 17 17 18 20 20 8 7 11 11 2 4 5 1 2 1 0 2 3 1 1 3 3 2 2 2 3 2 3 1 2 2 1 2 1 5 7 8 9 13 11 11 13 13 17 18 19 19 19 20 21 22 18
18 16 19 19 19 17 14 10 3 4 6 2 2 3 3 1 1 2 2 2 1 2 2 3 2 2 2 4 2 2 2 2 2 1 2 2 6 8 9 9 10 10 10 11 14 14 17 20 21 19 18 19 21 23
19 21 15 21 22 18 14 10 4 4 2 2 6 3 3 3 4 3 3 2 4 1 0 3 3 3 4 2 3 4 2 3 2 2 1 5 8 8 10 10 10 11 12 14 16 18 19 19 18 18 18 19 19 20
12 5 21 24 21 17 16 5 4 2 3 4 4 5 4 3 5 3 4 4 4 2 2 2 4 4 2 3 3 4 3 3 3 2 4 6 9 9 10 11 12 15 16 17 19 19 19 19 22 20 17 14 15 16
7 19 32 33 33 23 5 4 2 3 6 4 4 5 6 6 4 5 5 6 3 2 2 3 3 5 4 3 3 3 2 3 5 5 5 7 9 10 13 12 17 18 18 19 19 19 19 17 15 13 15 14 17 14
20 29 37 34 18 7 3 3 4 4 6 3 3 5 4 3 8 7 7 7 5 5 3 3 6 4 3 3 3 5 4 3 4 6 8 12 15 16 19 22 21 20 20 19 19 17 18 19 15 14 13 12 12 9
25 21 19 13 8 3 4 3 4 4 4 3 3 8 4 4 6 7 10 8 8 4 6 5 4 3 3 4 4 5 3 3 5 8 8 8 16 21 19 18 17 20 20 21 20 19 18 19 17 15 14 11 9 7
11 10 9 10 5 10 4 3 3 2 3 4 3 2 4 7 10 8 7 7 7 4 4 4 4 5 11 11 13 12 13 12 9 6 5 7 15 19 20 20 21 20 18 16 15 16 17 14 12 12 11 10 6 4
7 10 5 9 5 4 4 9 2 2 3 2 2 3 3 3 5 7 5 8 4 5 4 4 6 5 8 13 15 21 18 23 23 22 21 19 9 11 15 17 19 18 18 16 16 15 14 13 11 11 10 8 5 3
7 8 8 10 6 5 2 5 4 4 3 2 2 3 4 3 4 3 4 5 4 7 11 7 10 13 14 18 24 28 25 23 19 19 20 21 23 22 22 23 20 18 16 16 16 16 15 11 11 10 9 8 7 6
10 6 5 5 6 2 2 4 3 3 3 2 2 3 4 3 2 4 4 3 4 11 9 12 11 7 14 19 10 18 19 19 22 23 20 19 19 19 21 21 22 22 17 14 15 14 14 13 11 11 10 9 9 10
7 8 6 7 4 5 6 4 5 4 4 4 3 4 3 2 3 3 3 3 5 6 6 11 13 11 7 7 13 18 21 18 18 16 19 17 17 18 19 20 23 23 18 18 17 14 13 11 12 12 10 10 11 12
8 6 5 5 4 4 3 4 4 5 4 4 5 2 3 3 4 4 2 2 3 4 5 6 6 6 8 13 8 11 14 16 21 23 18 20 18 16 12 10 8 12 14 13 11 11 10 10 11 11 10 9 12 12
7 6 2 3 2 3 4 3 2 4 5 5 3 3 3 5 4 2 2 5 3 7 11 12 12 12 11 13 16 20 22 23 24 21 18 21 21 20 18 15 11 8 7 8 9 9 9 8 9 9 10 12 12 12
4 4 4 6 5 4 4 4 5 5 3 4 3 5 4 3 2 2 2 7 13 14 17 17 15 16 18 18 17 18 19 18 17 16 19 20 17 15 12 10 8 7 7 8 9 9 8 8 8 11 13 13 14 12
4 3 4 6 5 5 5 4 3 4 5 1 3 2 2 3 4 4 7 13 14 16 17 19 19 21 21 20 20 18 10 7 6 6 5 2 6 15 13 12 12 11 11 11 9 7 7 9 11 12 13 14 14 13
4 2 5 4 5 5 3 3 2 3 5 3 4 4 3 4 12 12 14 13 13 14 13 12 11 12 15 17 17 18 18 18 17 12 4 2 4 7 8 12 13 12 12 12 12 11 10 10 10 10 12 12 12 12
2 3 5 4 4 2 3 6 14 13 6 5 7 4 3 2 7 16 14 12 12 12 13 15 14 12 12 10 9 9 9 11 11 9 6 4 5 6 8 10 10 10 11 10 10 11 11 11 12 14 13 13 12 12
4 4 4 4 2 2 1 2 2 3 2 3 3 2 3 3 2 3 4 3 7 10 8 7 8 8 7 8 8 8 7 8 8 6 5 6 6 7 8 9 10 10 10 10 10 10 10 11 12 12 12 13 13 13
3 3 4 3 3 2 2 3 3 2 3 2 1 2 1 3 3 3 4 6 6 4 2 2 2 3 4 4 5 6 7 7 5 4 4 5 7 10 12 10 9 10 9 8 9 10 10 10 10 11 11 12 13 13
Wind_Direction
96 132 173 176 175 187 179 155 157 159 164 170 170 172 173 177 177 173 194 204 211 188 286 305 146 156 173 197 176 196 137 230 74 167 160 212 163 206 138 207 181 160 152 172 92 77 268 168 92 167 211 260 144 146
95 80 130 183 174 144 140 148 152 159 164 166 169 171 172 172 171 171 174 214 249 177 303 309 283 252 197 205 176 216 178 169 179 148 156 107 161 142 146 212 235 227 186 182 182 209 228 210 195 245 174 154 171 138
97 101 97 106 121 130 137 146 152 156 159 163 167 168 168 169 170 175 185 205 153 77 296 323 213 188 207 188 187 156 276 181 193 154 160 160 181 135 155 229 146 221 165 133 81 229 223 245 252 209 135 144 130 114
92 99 105 112 120 127 134 140 145 148 152 157 163 167 169 169 169 169 186 212 159 94 199 282 278 185 165 195 194 191 154 95 105 73 113 148 159 180 203 207 187 220 146 158 232 228 291 241 217 159 99 92 96 80
91 97 105 113 122 128 135 140 146 151 157 161 163 160 165 170 173 177 193 216 220 38 157 258 282 82 170 187 207 207 162 132 138 117 130 219 137 117 266 27 243 198 179 173 229 194 178 209 152 140 123 121 118 119
104 108 113 123 129 134 139 145 150 154 157 162 168 174 173 168 170 143 192 225 208 208 349 343 308 298 279 42 218 201 189 132 143 148 193 163 164 122 165 205 241 219 204 149 234 127 53 109 108 92 113 113 100 103
111 115 121 125 130 137 142 147 153 155 160 165 166 165 165 166 161 180 204 147 160 157 286 312 338 292 3 78 22 120 119 135 130 143 133 145 131 108 122 199 335 358 32 82 112 107 72 197 158 115 115 111 103 99
111 116 124 134 141 147 152 154 154 158 161 166 168 167 162 158 162 199 111 145 141 110 219 281 276 344 6 83 297 315 119 92 30 121 80 134 89 71 255 35 69 75 76 46 33 28 99 107 104 109 116 119 109 109
107 108 109 115 123 163 166 149 150 154 166 173 180 148 130 158 135 121 149 149 156 146 178 168 223 235 337 57 62 311 252 121 213 116 158 108 167 213 193 162 167 177 146 116 79 90 101 105 117 120 121 121 118 122
116 115 113 113 111 118 137 154 152 160 134 125 117 91 90 144 123 121 131 136 118 223 148 183 186 241 99 54 102 304 333 128 124 209 123 131 222 152 180 196 150 132 138 133 113 110 105 122 132 134 135 132 128 128
129 126 123 126 130 129 131 133 137 141 142 107 93 81 124 133 72 62 119 173 145 153 185 210 189 151 338 120 147 169 311 89 122 199 148 194 245 229 147 169 152 137 140 276 75 73 153 143 136 127 114 105 106 116
127 126 121 122 126 124 130 133 134 127 87 123 109 114 122 139 176 136 147 139 190 197 180 177 195 146 136 131 91 303 253 298 128 146 111 205 273 92 106 123 110 116 122 102 102 111 113 110 115 108 108 111 115 119
135 131 122 122 126 133 141 93 94 108 118 66 63 78 166 70 162 152 166 162 169 175 187 154 96 114 87 49 90 275 23 20 55 63 202 322 49 101 112 106 97 96 100 104 101 101 104 106 109 117 117 115 117 117
144 140 133 131 132 138 156 140 72 112 30 339 170 126 192 142 130 144 84 99 78 98 126 109 84 94 109 76 129 167 238 121 96 147 217 106 134 126 120 116 115 109 107 109 110 108 107 108 104 104 108 128 127 121
159 154 148 152 143 140 140 153 112 67 19 332 11 76 77 188 49 54 66 80 330 149 90 109 98 83 70 99 51 121 152 99 116 232 345 72 106 103 92 98 102 100 102 104 110 106 106 107 106 106 114 125 130 131
154 149 168 159 156 152 136 139 105 8 329 19 35 43 11 59 38 33 18 57 7 27 183 44 81 62 62 79 58 18 55 60 26 352 342 96 88 92 95 90 89 95 98 99 100 103 104 109 113 111 113 123 130 134
142 95 144 158 169 172 172 120 46 3 22 37 34 12 1 50 42 27 10 352 320 37 68 61 55 48 68 62 59 19 31 340 336 44 50 81 104 102 99 96 98 100 96 95 98 98 96 103 108 106 106 110 109 118
86 139 158 157 147 118 71 49 139 72 54 28 57 23 52 36 358 21 356 359 17 56 42 64 43 44 36 44 40 3 19 25 46 55 64 78 87 89 100 100 92 90 88 88 92 98 100 99 95 101 112 116 115 113
117 137 145 144 133 101 105 34 23 77 44 23 24 9 39 46 25 19 23 19 34 47 75 47 52 37 14 4 330 325 345 34 74 69 64 64 78 87 86 84 85 86 87 87 87 85 81 80 87 94 107 119 109 119
101 115 152 160 140 89 76 44 38 68 58 81 58 43 45 21 357 20 28 26 39 56 48 45 35 9 339 323 307 310 351 60 94 85 62 51 57 69 68 79 82 86 84 81 77 81 82 75 79 90 94 96 107 104
101 86 106 144 84 64 70 40 62 73 91 87 123 74 84 53 40 33 34 4 48 38 60 28 18 16 11 15 20 41 48 59 56 66 84 73 58 70 69 69 75 74 76 76 78 70 72 73 77 80 79 74 78 115
42 42 66 54 81 63 65 16 66 75 68 74 92 96 85 51 38 34 32 37 55 26 24 10 14 13 30 35 38 47 59 70 69 68 64 68 64 61 59 64 75 72 68 67 72 73 69 73 76 68 61 52 42 14
51 37 50 30 68 52 17 360 58 27 74 58 31 61 46 52 46 30 64 34 46 3 9 22 31 37 47 45 52 49 52 66 68 67 68 70 68 65 65 59 63 72 72 59 74 75 72 66 54 46 36 25 17 5
54 53 46 48 39 60 9 30 27 47 54 47 56 84 78 81 81 67 70 46 2 1 21 26 34 49 51 48 44 38 41 64 72 64 62 75 73 63 66 66 64 67 72 77 72 68 60 53 42 34 29 24 20 15
66 6 58 4 355 45 32 25 15 37 51 30 61 66 59 71 71 67 60 33 8 12 15 27 44 46 60 61 54 49 46 63 75 73 51 72 89 85 74 71 68 62 57 63 60 58 57 48 38 35 32 24 15 4
68 2 48 4 2 58 16 45 31 23 26 48 48 49 48 68 66 60 61 49 15 10 12 28 47 62 54 49 59 47 44 67 82 74 53 71 77 85 85 77 69 55 47 48 48 43 35 30 21 12 8 4 354 344
48 4 357 34 359 65 45 31 27 54 44 29 12 35 58 67 75 81 89 26 59 39 62 69 67 72 74 70 68 78 86 86 86 93 92 81 77 75 73 72 61 48 31 27 22 15 9 6 1 356 346 341 338 335
61 44 57 324 47 28 78 43 36 21 9 3 59 38 91 105 86 25 72 95 101 96 88 82 91 98 93 91 95 97 96 93 91 87 85 79 72 64 58 52 40 16 3 356 355 352 350 349 344 339 339 337 335 332
45 331 78 23 39 42 39 35 26 7 333 29 101 87 90 62 357 32 83 119 117 105 94 89 92 101 97 92 83 76 80 64 105 72 66 13 21 33 43 43 31 15 7 4 2 357 353 336 335 333 330 330 328 325
352 21 84 52 55 45 326 30 15 312 7 85 98 102 68 51 30 86 104 109 105 102 108 104 105 102 100 96 87 73 65 59 58 69 114 94 39 22 12 7 9 14 14 9 8 10 10 5 3 359 350 344 347 348
3 57 66 58 70 15 187 132 79 58 37 44 43 82 87 110 67 56 73 90 104 114 111 100 93 87 86 83 82 80 64 46 36 37 41 33 14 9 0 358 357 353 351 348 347 347 347 350 353 355 357 360 358 351
29 55 115 100 119 205 200 50 86 85 10 52 6 52 23 51 47 23 33 112 115 106 103 104 97 92 80 73 62 52 37 18 19 35 49 40 20 8 352 344 341 340 341 340 338 340 341 340 343 346 345 347 348 346
53 49 54 86 69 133 244 93 46 70 37 65 26 117 134 140 166 193 102 84 85 92 116 139 129 107 101 62 38 23 15 18 22 26 20 16 358 350 346 348 349 345 343 342 342 340 337 339 342 344 343 342 344 345
Height
465 465 467 473 483 492 500 513 533 552 571 589 606 622 636 649 661 671 681 691 697 691 684 681 679 684 692 698 712 712 717 722 736 738 742 745 748 730 734 727 731 734 750 767 782 778 751 723 728 736 724 720 723 729
475 471 461 470 488 494 506 526 544 561 577 593 609 623 636 647 658 671 679 688 691 689 687 684 682 680 680 685 697 704 702 706 709 720 732 739 738 745 727 734 724 731 723 734 734 733 717 716 712 713 716 718 721 723
487 489 488 490 501 514 528 542 557 570 584 599 613 625 636 648 658 665 676 687 686 688 688 685 681 680 680 682 686 699 703 696 700 699 715 720 721 727 731 730 718 716 717 723 724 716 716 716 716 715 714 716 719 721
511 512 514 519 526 535 545 557 568 580 593 605 617 629 640 651 660 668 674 681 685 686 689 683 678 678 679 680 683 686 689 692 696 703 714 717 719 710 725 710 714 711 711 720 721 717 723 715 716 717 719 722 725 728
531 532 535 539 545 552 561 570 579 590 600 611 622 632 642 653 663 672 678 686 685 688 687 688 677 674 676 678 681 684 686 691 697 708 716 712 709 713 722 719 727 703 703 710 702 692 698 700 711 716 719 725 729 731
547 548 551 554 559 564 571 579 588 597 607 617 626 636 645 654 665 673 684 681 680 688 689 688 680 675 676 674 677 680 682 687 692 697 707 702 701 705 717 717 692 690 689 687 688 695 706 708 712 715 721 729 732 737
559 561 563 566 570 575 581 588 596 604 612 621 630 639 647 656 665 674 671 668 679 691 696 690 684 676 675 676 679 680 681 686 687 694 704 700 702 704 723 713 694 699 697 696 698 702 714 712 715 720 724 730 735 743
570 571 573 575 579 583 588 595 602 610 617 624 632 641 650 660 670 668 665 670 679 690 697 694 687 683 675 678 680 681 682 685 690 694 701 706 705 713 699 697 701 705 705 706 706 705 705 713 720 727 730 734 741 749
578 579 580 582 583 584 592 601 610 615 619 626 632 644 655 662 660 661 668 676 681 688 695 698 688 690 680 684 687 686 682 688 693 697 697 696 709 696 687 696 703 703 704 715 717 717 718 717 728 732 735 741 742 751
587 589 588 590 589 590 596 607 615 619 622 627 637 644 658 658 659 665 676 678 680 682 684 687 684 684 682 689 693 693 682 685 686 692 693 699 697 696 696 694 694 704 710 709 711 724 724 731 734 738 740 743 744 749
595 599 601 603 606 609 612 615 620 626 632 632 638 648 656 659 660 666 675 676 679 680 681 680 679 679 683 688 693 696 684 687 683 688 690 695 692 691 694 698 697 696 705 712 708 714 716 714 725 737 745 752 757 761
608 609 612 616 618 622 626 630 633 634 634 634 636 649 657 661 666 671 670 677 671 668 676 675 675 674 684 685 690 697 691 691 679 692 689 690 693 692 695 701 701 706 709 711 715 721 725 729 735 742 751 756 758 767
613 616 620 624 627 630 633 634 636 637 635 634 639 650 652 662 662 675 662 663 663 668 670 671 674 678 685 686 692 697 689 685 692 688 685 692 694 697 699 702 708 711 714 717 722 726 730 735 741 748 755 762 768 775
619 622 625 628 632 636 639 640 643 639 646 648 649 652 654 657 658 657 655 659 667 669 669 671 675 676 685 687 697 688 696 694 696 695 696 703 704 706 707 709 712 719 722 726 730 733 737 742 749 757 761 769 773 777
624 627 632 635 639 643 645 647 650 652 654 653 651 654 660 664 664 664 665 667 671 669 668 671 675 675 683 686 692 693 691 694 706 714 707 710 712 712 714 718 721 725 729 733 736 740 746 751 756 765 771 773 775 778
624 631 635 639 643 647 651 654 657 660 659 657 661 659 664 662 666 668 669 669 672 671 670 669 675 678 684 688 687 697 693 698 707 712 714 713 715 718 721 725 729 733 737 740 745 749 754 760 764 769 774 778 781 784
623 629 634 640 647 652 657 661 664 666 665 666 673 675 672 672 676 677 678 678 675 670 675 678 676 687 692 696 704 709 714 716 717 718 718 718 721 725 729 733 738 741 744 748 752 757 762 766 770 775 780 786 788 791
625 629 634 640 646 652 658 663 667 668 672 678 682 688 689 690 690 688 687 682 677 679 687 697 701 710 718 715 722 726 724 724 723 724 727 729 730 734 737 740 745 748 752 757 761 766 770 774 778 783 786 790 793 796
628 631 636 641 644 652 662 669 669 678 687 689 693 694 694 700 702 699 694 692 690 691 698 714 733 741 745 744 743 738 730 729 731 735 737 739 741 742 745 748 753 758 762 766 770 774 778 782 785 789 792 794 797 800
633 636 641 643 649 654 663 674 675 683 691 706 708 709 710 715 714 710 707 703 702 708 725 742 756 759 757 754 749 743 736 737 738 742 748 751 753 752 756 759 764 768 771 776 779 782 786 789 793 795 797 799 800 803
640 644 645 646 652 659 673 679 684 691 697 705 710 712 721 725 725 724 721 720 721 744 757 765 766 765 763 757 752 748 746 746 748 750 757 762 765 764 768 771 774 777 781 785 788 792 794 797 800 801 801 802 803 804
641 641 642 646 660 672 683 689 690 695 699 704 707 713 721 729 733 738 743 745 764 773 774 774 773 770 767 764 762 759 760 758 761 764 767 769 772 775 779 782 783 788 791 795 797 800 802 804 805 805 805 806 806 806
643 645 653 662 673 683 699 695 697 700 704 711 715 718 729 737 747 750 765 777 784 786 783 781 780 778 775 774 771 770 771 771 773 777 780 782 785 788 790 793 795 797 800 804 805 806 807 808 808 808 808 808 807 807
652 666 683 692 695 710 706 708 707 710 714 716 719 726 736 747 756 768 783 792 796 793 789 787 785 783 782 781 782 785 786 785 786 788 792 792 795 800 802 803 805 806 808 809 810 810 811 811 811 811 810 810 809 808
675 703 707 718 715 717 725 725 723 723 724 728 728 735 748 752 766 781 792 799 800 799 797 796 794 793 793 795 796 797 796 795 795 797 802 803 805 807 809 811 812 813 814 813 813 814 814 815 814 813 812 812 811 810
709 725 728 732 731 733 736 744 746 742 744 742 748 758 763 772 786 794 799 805 807 806 805 803 802 802 804 805 805 805 806 806 804 804 811 810 811 811 814 815 817 818 819 819 818 818 817 817 816 815 814 813 811 810
734 739 738 739 738 739 755 760 756 763 766 765 768 780 782 796 802 802 807 810 811 812 810 809 809 809 811 812 812 812 812 811 810 814 817 817 817 818 818 819 820 822 821 820 820 819 818 817 816 815 814 812 811 809
739 746 757 759 759 757 770 777 777 778 777 775 784 804 811 814 809 810 812 815 814 815 814 814 814 815 816 817 818 818 818 819 819 820 820 821 822 822 823 823 823 823 822 821 819 818 817 816 815 814 812 811 809 808
757 759 758 771 771 774 780 786 789 789 789 788 804 809 810 813 816 815 817 818 818 818 819 820 821 821 821 821 821 822 822 821 821 824 827 828 825 825 824 824 823 822 821 820 819 818 817 815 814 813 811 810 808 806
763 761 770 785 788 794 804 799 801 798 792 792 795 804 812 819 820 819 819 820 820 821 823 823 824 824 824 824 825 825 825 825 825 825 827 827 827 827 825 824 823 822 821 819 818 817 816 814 813 812 810 808 806 804
767 768 779 788 798 804 805 802 801 801 801 806 808 815 820 822 824 826 825 826 826 826 826 826 827 827 827 827 827 827 828 828 828 827 827 827 827 827 826 825 824 823 821 819 818 816 815 814 812 811 809 807 806 804
779 786 788 795 801 802 801 803 810 815 818 820 822 822 825 828 834 829 830 829 829 828 829 829 829 830 830 829 829 829 829 829 828 828 828 828 827 827 826 825 823 821 820 818 817 816 814 813 811 810 808 806 804 802
792 794 796 798 799 801 801 802 808 815 820 822 822 824 829 831 834 830 831 830 830 829 829 830 830 830 830 830 830 830 830 829 829 828 828 828 828 826 824 822 821 820 818 817 816 815 813 812 810 808 807 805 803 801